Wind_Speed
44 42 40 38 36 34 32 30 28 26 24 22 20 19 18 17 17 17 17 16 15 14 14 14 15 17 19 21 23 24 26 28 29 30 31 33 35 37 40 42 43 44 43 41 39 37 35 33 32 30 28 27 25 23 21 19 17 14 12 10 8 6 5 5 5 6 7 8 10 12 13 15 16 18 20 21 22 24 26 27 28 30 31 32 33 33 34 34
35 34 32 29 27 25 23 21 19 17 16 15 14 13 13 13 13 13 13 13 13 14 16 18 20 23 25 27 29 30 32 33 34 36 38 42 44 46 46 46 45 44 42 40 38 36 35 33 31 29 27 26 23 21 19 17 15 13 11 9 6 5 5 5 6 6 8 9 11 12 14 16 17 19 21 22 24 25 27 28 30 31 32 32 33 33 34 34
27 25 23 21 19 17 15 13 12 11 10 10 10 10 11 12 12 13 14 16 17 20 22 25 27 29 31 33 34 35 36 38 41 44 48 50 49 49 47 46 44 43 41 40 38 36 34 32 30 28 26 24 22 20 17 16 14 12 10 7 5 5 5 5 6 7 8 10 12 13 15 16 18 20 21 23 25 27 28 29 30 31 32 33 33 33 34 34
18 17 15 13 11 9 8 8 8 8 9 10 12 14 15 16 17 19 20 22 24 27 29 32 34 35 36 38 39 41 44 47 50 52 52 52 50 48 46 45 43 42 40 38 36 34 32 30 28 26 25 23 21 18 16 14 12 10 8 6 5 5 5 6 7 8 10 12 13 15 16 18 19 21 23 25 26 28 29 30 31 32 33 34 34 35 35 36
10 9 7 6 6 6 8 9 11 13 15 17 19 21 22 23 25 26 28 29 30 32 34 36 38 40 42 45 47 50 52 54 54 53 52 51 49 47 45 43 42 40 38 36 34 32 30 28 26 24 23 21 19 16 15 13 11 8 7 6 5 5 6 8 9 10 12 14 16 18 19 20 22 23 25 26 28 30 31 31 32 33 34 35 35 36 36 37
3 4 5 7 9 12 14 17 19 21 23 25 26 28 29 30 31 32 33 33 33 35 38 42 45 48 51 53 55 55 55 54 53 52 51 49 47 45 44 42 40 38 37 35 33 30 28 26 24 22 20 18 16 14 13 12 9 7 6 6 6 7 8 9 11 12 14 16 19 20 22 23 24 26 27 29 31 32 33 33 34 34 35 35 36 37 37 38
8 10 13 15 18 20 23 25 27 28 30 31 32 33 33 34 35 36 37 37 38 41 47 52 55 57 58 58 57 56 55 53 52 51 49 47 45 43 42 40 38 36 34 33 31 29 26 24 22 20 18 16 13 12 11 9 7 6 6 6 7 8 10 11 12 14 16 18 20 22 24 25 27 28 29 31 32 33 34 34 35 35 36 36 37 38 39 39
17 19 21 24 26 28 30 31 32 34 34 35 36 36 37 38 40 41 42 44 48 53 57 60 61 60 59 57 55 54 53 52 50 49 47 45 43 41 39 37 36 34 31 30 28 26 24 22 20 19 17 14 11 10 9 8 7 7 7 8 9 10 11 13 14 16 18 20 22 24 25 27 28 30 31 32 33 34 35 35 36 36 37 38 39 40 41 41
24 26 28 30 32 34 35 36 37 38 39 39 40 41 43 45 47 49 51 55 58 61 62 62 61 59 58 56 54 52 51 50 48 46 44 43 41 39 37 35 33 31 29 27 25 23 21 19 18 17 15 13 10 9 9 8 8 8 9 10 11 12 14 15 16 17 19 21 23 25 27 28 30 31 33 34 35 36 37 37 38 38 39 39 40 41 42 43
30 32 34 36 37 39 40 41 42 43 44 45 47 48 50 52 54 57 59 61 62 62 61 60 59 57 56 54 53 50 48 47 46 44 42 40 39 36 34 32 30 29 27 24 23 21 19 17 15 14 13 11 9 9 9 9 9 10 11 12 14 15 16 17 18 20 21 23 25 26 28 30 31 33 34 36 37 38 39 40 40 40 41 41 42 42 43 44
35 37 39 41 42 44 46 47 48 49 50 52 53 55 57 58 59 60 61 62 62 61 60 58 57 55 54 52 51 48 45 45 43 42 40 38 36 34 31 29 28 26 24 22 20 18 17 15 13 12 11 9 9 9 9 9 11 12 13 14 15 16 18 19 21 22 24 25 26 28 30 32 33 35 36 38 39 40 41 42 43 43 44 44 44 44 45 45
40 42 44 46 48 49 50 51 52 53 55 56 58 59 60 61 61 60 60 60 59 59 58 56 54 53 52 50 48 46 43 42 41 39 37 35 33 30 28 26 24 23 21 18 17 16 15 13 11 10 9 9 9 9 9 10 12 13 14 15 16 18 20 22 23 25 26 27 29 30 32 34 35 36 37 39 41 42 43 45 45 46 47 47 47 47 47 47
45 47 49 50 51 52 53 54 55 57 58 59 60 61 61 60 59 58 58 57 57 56 55 54 52 50 49 48 45 43 41 39 37 36 34 32 30 27 25 23 21 20 18 16 15 14 13 11 10 8 8 9 9 10 10 12 13 14 16 17 18 20 21 24 26 27 28 29 31 32 34 35 37 38 39 41 42 44 45 46 47 48 49 49 49 49 49 49
49 51 52 53 53 54 55 56 57 59 60 60 61 60 59 58 57 56 56 55 54 53 52 50 49 48 47 45 42 40 38 37 34 32 30 29 28 25 22 20 19 17 15 13 13 12 10 8 7 6 7 9 9 10 12 13 14 15 17 19 20 22 23 25 27 29 30 31 32 34 35 37 38 40 41 42 44 45 46 47 48 49 50 51 51 51 51 50
51 52 53 54 54 55 56 57 58 59 59 59 59 58 57 56 55 54 53 52 51 50 49 47 45 45 44 41 39 37 35 33 32 29 27 25 24 22 19 17 16 14 12 11 10 9 7 6 5 4 6 8 9 11 13 14 15 17 18 20 22 23 25 27 29 31 31 32 33 35 37 39 40 41 42 44 45 46 47 48 49 50 51 52 52 53 52 52
52 53 53 54 55 56 56 57 57 57 58 57 57 56 55 54 53 52 50 49 48 46 45 44 42 40 39 38 36 34 32 30 28 26 23 22 20 19 16 14 13 11 9 8 7 6 5 5 5 5 6 7 10 12 14 15 16 18 20 21 23 25 27 29 31 32 33 34 35 37 39 41 42 43 44 45 46 47 48 49 50 51 52 53 54 54 54 54
53 53 54 54 55 55 56 56 55 55 55 54 54 54 53 52 51 49 48 47 45 43 41 41 40 37 35 35 33 31 29 27 24 22 19 18 17 14 12 10 9 7 7 6 5 5 4 5 6 7 8 8 11 13 15 17 18 19 21 23 25 26 28 30 32 33 35 35 36 38 40 42 43 45 46 47 48 49 50 50 51 52 53 54 55 56 56 56
52 53 53 54 54 54 54 53 53 52 52 51 51 50 50 49 48 47 45 44 42 40 38 37 36 33 32 31 29 27 25 23 20 17 15 14 12 10 8 7 5 5 5 5 4 5 5 7 9 10 11 11 13 16 18 19 20 21 23 25 26 28 29 31 33 35 36 38 39 40 41 43 44 46 47 49 49 50 51 52 53 54 55 55 56 57 58 59
50 51 52 52 52 52 51 51 50 50 49 48 47 46 46 46 45 44 42 40 39 37 35 33 30 29 29 27 26 24 21 18 16 14 12 9 8 6 5 4 3 3 3 3 4 6 7 10 12 13 14 15 17 19 20 21 22 23 25 27 28 30 31 33 35 37 38 40 41 41 43 45 46 48 50 51 52 52 53 55 55 56 57 58 59 59 60 61
48 49 50 50 50 50 49 49 47 46 45 45 44 42 42 41 41 41 39 38 36 34 32 29 25 24 25 23 21 19 17 15 12 10 8 7 5 3 2 1 2 3 2 4 6 8 10 12 14 15 17 19 20 21 22 23 24 26 28 29 31 32 34 35 37 38 39 41 43 43 44 47 48 50 52 53 54 55 56 57 58 59 60 61 61 62 62 63
47 47 47 48 48 47 47 46 45 44 42 41 40 39 38 36 36 36 35 35 34 32 29 25 21 20 20 19 16 13 12 11 9 7 6 4 3 1 2 2 4 6 5 6 9 11 12 14 16 18 20 22 23 24 24 25 27 28 30 32 33 34 36 37 38 40 41 42 44 45 46 48 50 51 53 55 56 57 58 59 60 62 63 63 64 64 65 65
45 45 45 45 45 45 44 43 43 41 40 39 37 35 34 32 32 31 30 31 31 29 25 21 19 18 16 14 11 9 7 6 5 4 2 1 1 2 5 6 7 8 7 9 11 13 15 17 19 21 22 24 25 25 26 28 29 31 33 34 36 37 39 40 41 42 43 43 45 48 48 49 52 54 54 56 57 59 60 61 62 63 64 65 66 66 67 67
43 43 43 43 42 42 41 40 39 39 38 37 35 33 30 28 28 26 24 26 27 24 21 18 16 15 12 10 8 6 4 3 3 2 1 2 3 5 8 9 9 9 11 12 14 17 19 20 21 22 23 25 26 27 29 30 32 34 35 37 38 40 41 42 43 43 44 45 46 49 52 51 53 56 57 57 59 60 61 63 64 65 66 67 68 68 68 69
41 41 40 40 40 39 38 37 36 35 35 34 33 31 28 26 26 23 20 20 21 19 17 15 13 11 8 6 4 3 3 4 3 3 3 4 6 8 10 11 11 12 14 16 18 20 21 21 22 23 25 27 28 30 31 33 35 36 38 39 40 41 42 43 45 46 46 47 47 49 53 54 53 56 59 59 60 61 62 64 65 66 67 68 69 70 70 70
39 39 38 37 37 36 35 34 33 32 31 30 30 28 26 24 24 21 18 16 16 15 13 12 10 7 5 3 2 3 4 4 4 5 6 7 10 12 13 13 14 16 18 19 21 21 22 22 23 25 27 29 31 33 34 36 37 38 39 41 42 42 44 45 46 48 48 49 50 48 52 57 55 55 59 61 63 64 64 65 67 68 69 69 70 71 72 72
36 36 35 35 34 33 32 31 30 29 28 27 27 25 23 22 21 18 16 13 12 11 9 8 6 4 3 3 4 5 6 6 7 8 10 11 13 15 16 17 18 19 20 21 22 23 24 25 27 28 30 32 34 35 36 38 39 40 41 42 43 44 45 46 47 49 50 51 52 51 51 57 59 57 59 62 64 67 67 67 68 69 70 71 71 72 73 73
33 33 33 32 31 30 29 28 27 26 24 23 23 22 20 18 17 15 13 11 9 7 6 4 2 3 4 5 6 7 9 10 11 13 14 15 17 18 19 20 21 22 22 23 24 25 27 28 30 31 32 34 35 37 38 39 40 41 42 43 44 46 47 48 49 51 53 53 54 55 54 56 60 59 59 62 65 67 69 69 70 70 71 72 73 73 74 74
31 30 30 29 29 28 27 25 24 23 21 20 19 18 16 15 14 12 10 8 6 4 2 2 4 5 6 8 9 11 13 14 15 17 18 20 21 22 23 23 23 24 24 25 26 28 29 31 32 34 35 36 38 39 40 41 42 43 44 45 46 47 48 50 51 52 54 56 56 58 57 56 60 62 60 62 64 67 69 71 71 72 73 73 74 74 75 75
27 27 27 26 25 25 24 23 21 20 18 17 16 15 13 12 11 9 7 6 3 2 4 5 7 8 9 11 13 16 17 19 20 21 22 23 24 24 24 25 25 26 27 28 29 30 31 33 35 36 38 39 40 41 42 42 44 45 46 47 48 49 50 51 52 53 55 58 58 60 61 59 59 63 63 62 64 66 69 71 72 73 74 75 75 75 76 76
25 24 24 23 22 21 20 20 18 17 15 14 13 12 11 9 8 6 5 5 4 5 7 8 9 10 12 14 17 20 22 23 23 24 24 25 25 25 26 27 27 28 29 30 32 33 34 35 37 38 39 40 41 42 44 44 45 47 48 49 50 51 52 53 54 55 57 59 61 62 64 64 62 63 65 65 65 67 69 71 73 74 76 76 77 77 77 77
22 22 21 20 19 18 17 16 15 14 13 12 11 10 8 7 7 6 7 7 7 8 9 10 12 13 15 17 20 23 24 25 25 25 26 26 27 28 29 29 30 31 32 33 34 35 36 38 39 40 41 42 43 44 45 46 47 49 49 50 51 52 53 55 56 57 58 61 64 65 66 67 66 65 67 68 68 69 70 72 74 75 77 78 79 79 78 78
20 19 19 18 17 16 15 14 13 12 11 10 9 8 7 7 7 8 9 9 10 11 13 14 16 17 19 20 23 25 26 27 27 27 28 29 29 30 31 32 32 33 34 35 37 38 39 40 41 42 43 44 45 46 47 48 49 51 51 52 53 53 53 55 56 57 59 61 65 67 68 69 69 68 69 70 71 72 73 74 75 76 78 79 80 80 79 79
18 17 17 16 15 14 14 13 12 11 10 9 9 9 9 9 10 11 12 13 14 15 16 18 19 21 22 24 26 27 28 29 29 30 31 31 32 32 33 34 35 36 37 38 39 41 41 42 43 44 45 46 47 48 49 50 52 53 54 54 55 55 55 55 56 57 58 60 64 68 70 72 71 70 70 71 72 73 75 76 77 78 78 79 80 80 80 80
16 16 15 14 14 13 13 13 12 12 12 12 12 12 12 13 14 15 16 17 18 19 20 21 23 24 25 27 28 30 31 32 32 33 33 34 34 35 36 37 38 39 40 41 42 43 44 45 46 47 48 49 50 51 51 52 53 55 56 57 57 58 59 59 59 59 59 59 62 67 71 75 74 72 71 72 73 75 76 77 79 79 79 78 79 81 81 81
14 14 14 14 14 13 13 13 14 14 14 14 15 15 16 16 17 18 19 20 21 22 24 25 26 27 28 30 31 33 34 35 36 36 36 37 37 38 39 39 41 41 42 44 44 46 47 48 49 49 50 52 53 54 54 55 56 57 59 59 59 60 61 62 62 63 63 61 62 65 69 77 79 74 73 74 74 76 77 78 79 80 80 79 80 81 82 82
14 13 13 14 14 14 15 15 15 16 17 17 18 19 19 20 20 21 22 23 24 26 27 28 29 31 32 33 35 36 37 37 38 39 39 40 40 41 42 43 44 45 46 47 47 48 50 51 52 52 52 54 56 57 58 58 59 59 61 62 62 63 63 64 64 65 67 65 65 65 67 77 81 76 76 76 75 77 79 79 80 81 81 81 81 82 82 83
14 14 14 15 15 16 17 18 18 19 19 20 21 22 22 23 24 25 25 27 28 29 30 31 32 34 36 37 38 39 39 40 41 41 42 43 43 44 45 46 47 48 49 50 50 50 51 54 56 56 55 56 57 59 61 62 62 63 64 65 66 66 66 66 66 67 69 68 68 67 67 76 82 78 77 78 76 78 81 82 82 83 83 82 81 82 83 84
16 17 17 17 18 18 19 20 21 22 23 23 24 25 26 26 27 28 29 30 31 32 33 35 36 37 38 40 40 41 42 43 44 45 45 46 47 48 49 50 51 51 52 52 53 54 53 55 59 60 59 59 60 61 62 64 65 65 67 68 70 70 69 70 69 70 71 70 71 69 67 76 84 81 80 80 77 79 83 84 85 85 85 84 82 83 84 85
19 19 20 20 21 21 22 23 24 25 26 26 27 28 29 30 30 31 32 34 35 36 37 38 39 40 41 42 43 44 45 46 47 48 49 49 50 51 52 53 54 54 55 56 56 57 57 57 60 63 63 62 63 64 64 66 67 67 69 71 73 74 73 73 73 73 74 73 75 73 68 76 86 84 84 84 80 81 85 87 88 87 87 86 84 84 85 87
21 22 22 23 23 24 25 25 26 27 28 29 30 31 32 33 34 34 36 37 38 39 40 41 42 43 44 45 46 47 48 49 50 51 52 52 53 54 55 56 57 57 58 59 59 60 60 60 61 64 66 66 67 68 67 68 69 70 71 73 76 77 77 77 76 76 77 76 79 78 70 76 86 87 88 88 84 85 89 89 89 89 88 88 87 86 87 89
23 23 24 24 25 25 26 27 28 29 30 31 32 33 34 35 36 37 39 39 40 41 42 43 45 46 47 48 48 49 50 52 53 53 54 55 56 57 58 58 59 60 61 61 62 62 62 63 63 65 67 69 70 72 72 72 73 73 74 76 78 79 81 81 79 79 79 78 82 80 73 77 85 88 90 89 86 87 91 91 91 90 90 90 89 88 89 91
24 25 25 25 26 27 28 29 30 31 32 33 34 35 36 37 38 39 41 41 42 44 45 46 47 48 49 50 50 51 52 54 55 56 57 58 59 59 60 61 61 62 63 63 64 65 65 65 65 66 68 70 72 74 75 76 76 77 78 79 81 82 84 85 84 82 81 81 83 81 77 77 82 87 89 88 86 88 92 93 93 92 92 92 91 90 91 94
25 25 26 26 27 28 29 30 31 32 33 34 35 36 38 39 40 41 43 44 45 46 48 49 50 51 52 52 53 54 55 56 58 59 60 60 61 62 62 63 64 65 65 66 67 67 68 68 68 68 69 71 73 76 78 79 80 81 82 83 84 85 87 88 88 86 84 83 83 81 80 78 80 86 88 86 87 89 92 95 95 93 93 93 93 93 94 97
25 26 27 28 29 29 30 32 33 34 35 36 37 38 40 41 42 44 45 46 48 49 50 51 52 53 54 55 56 56 57 58 59 61 62 63 64 65 65 66 67 68 68 69 69 70 70 71 72 72 71 71 73 75 78 79 81 82 84 86 86 87 89 89 89 87 86 85 82 82 82 78 79 85 87 86 89 90 92 95 97 96 96 96 96 96 97 99
26 28 29 29 30 31 32 33 34 35 37 38 39 40 41 43 44 46 47 48 49 51 52 53 54 55 56 57 58 59 60 61 62 63 64 65 66 67 68 68 69 70 71 72 72 73 73 74 76 77 77 76 75 76 78 78 79 82 84 86 87 88 89 89 89 88 88 86 82 83 83 78 79 85 86 87 91 91 92 96 97 98 98 99 99 98 99 101
28 29 30 31 32 33 34 36 36 38 39 40 41 42 44 45 47 48 49 50 51 53 54 55 56 57 58 59 61 62 63 64 65 65 66 67 68 69 70 71 72 73 74 75 76 76 76 77 78 80 80 81 81 82 83 82 82 84 87 89 90 90 90 90 90 90 90 88 84 84 84 81 81 85 85 87 92 92 93 96 98 99 99 100 101 100 100 102
31 32 33 33 35 36 37 38 39 40 42 43 44 45 47 48 49 51 52 53 54 55 56 58 59 60 61 62 63 64 65 66 67 68 69 69 70 72 73 74 75 76 77 78 79 79 79 79 81 82 82 83 85 86 86 87 86 88 90 93 94 93 92 92 91 91 92 91 87 87 87 86 86 88 89 91 95 95 96 99 100 100 101 101 101 100 101 103
33 34 35 36 37 38 39 41 42 43 44 46 47 48 49 51 52 53 55 55 57 58 59 60 61 62 63 64 65 66 67 68 69 70 72 72 73 75 76 77 78 79 81 82 82 83 83 83 83 84 83 85 88 88 89 89 89 90 93 96 96 94 93 92 92 93 94 93 91 91 91 90 91 93 94 96 98 99 100 102 103 103 103 104 103 102 103 104
34 35 36 37 38 40 41 42 43 45 46 48 49 50 51 53 54 55 57 58 59 60 61 62 63 65 66 66 67 68 69 70 70 72 74 75 76 78 78 80 81 82 84 85 86 87 87 87 87 87 86 87 90 92 91 90 90 91 94 98 97 95 94 94 94 95 95 95 95 95 94 94 95 97 98 100 101 102 102 103 105 106 107 107 105 104 105 106
35 36 37 38 39 41 42 43 45 46 48 49 50 52 53 54 56 57 58 59 60 62 63 64 65 67 68 69 70 71 73 73 73 74 75 76 78 80 81 82 83 85 86 88 89 90 91 91 91 91 89 88 90 92 92 91 90 92 95 99 99 97 96 97 98 98 98 97 97 98 97 96 97 99 101 102 103 103 104 105 107 109 110 109 108 108 108 109
37 38 39 40 42 43 44 45 47 48 49 51 52 53 55 56 58 59 60 61 63 64 65 67 68 69 71 72 73 75 76 77 77 78 79 79 80 82 83 84 85 87 88 90 91 92 93 93 93 92 90 88 90 92 91 90 91 94 99 103 101 100 100 100 100 100 100 99 99 99 98 97 99 101 101 102 104 105 105 106 108 111 111 111 110 110 111 110
40 41 42 43 44 45 46 48 49 50 51 53 54 55 57 58 60 61 62 64 65 67 68 69 71 72 73 74 76 78 79 80 80 81 82 83 84 85 86 87 88 88 89 90 91 91 92 93 93 93 92 91 92 94 93 92 92 96 103 107 105 103 103 102 101 102 102 102 100 100 99 99 100 101 102 103 104 104 104 106 109 112 112 110 110 111 111 111
Wind_Direction
277 275 273 271 269 267 266 264 263 262 261 259 256 251 245 238 230 226 222 218 213 205 194 180 168 158 152 148 145 143 141 139 136 134 132 129 125 121 119 118 116 114 112 111 112 113 114 115 115 115 114 113 111 109 108 105 103 100 96 91 88 81 66 46 24 4 348 343 338 332 328 328 327 327 325 323 322 321 321 320 319 319 318 317 316 315 314 313
276 273 271 269 266 264 262 260 258 255 252 247 240 232 222 214 207 201 194 186 177 168 160 153 147 144 142 140 138 136 134 132 130 128 125 122 119 118 117 116 114 113 112 113 114 115 116 116 115 114 113 111 108 106 105 102 100 96 92 88 86 76 54 32 14 355 343 339 334 329 328 329 327 326 325 323 323 323 322 322 322 322 321 319 318 316 314 313
274 271 269 266 262 258 253 248 243 236 228 218 204 192 182 175 167 160 155 151 148 145 142 140 138 137 135 133 131 129 127 126 124 123 121 119 118 117 116 115 115 115 116 116 117 116 116 115 114 112 111 108 106 104 102 100 96 93 89 86 79 61 39 21 3 344 337 336 332 328 328 328 326 325 325 326 325 324 324 324 323 322 321 320 319 318 317 316
271 268 263 258 250 240 228 216 203 189 175 163 155 148 144 140 137 135 134 134 135 135 135 134 133 131 128 126 124 124 123 122 122 121 120 118 117 116 116 116 116 116 116 117 116 116 115 114 113 112 109 107 104 103 101 97 92 89 85 76 61 41 24 9 351 337 334 334 330 328 327 326 326 326 327 327 327 326 325 324 324 324 324 323 323 323 322 321
265 257 245 228 207 186 170 158 148 141 137 133 131 129 127 126 126 126 125 127 130 131 132 130 127 124 122 121 121 121 121 121 120 119 118 117 116 116 116 116 116 116 116 116 116 115 115 114 112 110 108 105 104 102 99 92 88 84 74 59 40 21 9 356 342 334 335 334 330 328 327 327 327 327 327 328 328 327 326 326 327 327 327 327 327 326 325 324
222 190 167 153 145 138 133 129 127 125 124 124 123 122 121 122 123 122 121 124 127 128 127 123 121 120 120 120 120 120 120 119 119 117 116 115 115 116 116 117 117 117 117 117 116 115 113 112 109 107 105 102 101 98 92 86 82 74 57 37 19 5 354 343 335 335 334 332 330 329 328 327 327 327 328 329 328 328 328 328 328 328 329 329 330 329 328 327
129 129 128 126 124 123 122 122 121 121 121 120 119 119 120 120 120 119 119 121 122 122 120 118 118 118 118 119 119 119 118 118 117 116 116 116 117 118 118 119 119 118 117 117 115 114 112 110 107 104 100 95 93 88 82 77 68 54 34 15 4 353 341 334 333 334 332 330 329 328 328 327 327 327 328 328 327 327 328 328 328 329 330 332 332 332 331 330
117 118 118 118 119 119 120 120 120 119 117 117 117 117 117 116 115 115 116 118 118 117 116 116 117 117 118 118 118 118 118 118 117 117 117 118 119 119 119 119 118 117 115 114 113 112 109 107 105 101 94 88 83 75 67 56 43 30 12 358 352 343 334 331 333 333 331 330 329 328 328 327 327 327 327 326 326 327 328 328 329 331 332 334 334 333 333 332
113 115 116 118 118 119 119 117 116 115 115 115 115 114 113 113 113 115 116 116 116 116 116 116 117 117 118 118 118 118 118 118 118 119 119 119 119 119 118 117 116 115 113 112 110 108 106 104 99 94 88 81 72 60 48 32 19 9 358 350 344 337 332 333 333 333 330 329 329 328 328 327 327 327 326 325 326 327 328 329 330 332 333 335 335 334 334 334
114 116 117 118 117 116 115 114 113 113 113 113 112 112 112 113 114 116 116 116 116 116 117 117 118 118 118 119 118 119 119 119 120 120 120 120 119 118 117 115 114 113 112 110 108 105 102 97 91 86 80 71 57 43 29 15 3 357 351 345 340 335 333 334 333 332 331 330 329 328 328 327 327 326 326 326 327 328 329 330 331 332 334 335 335 335 335 335
116 117 116 115 114 114 113 113 113 112 112 112 112 112 113 115 116 117 117 117 118 118 118 118 119 119 119 119 119 120 121 120 120 119 118 118 116 116 114 113 112 111 109 107 104 100 94 86 80 74 69 60 44 27 13 1 354 351 345 341 338 335 335 335 334 333 331 330 329 329 328 327 327 327 327 327 328 328 329 330 332 333 334 334 335 336 336 336
115 115 114 113 113 113 112 112 112 112 113 113 114 114 115 117 117 118 118 119 119 119 119 119 119 120 119 119 119 121 120 119 119 118 116 115 113 112 111 110 109 105 102 99 95 89 82 74 65 56 50 43 30 10 357 351 348 344 340 337 335 334 336 335 334 333 331 331 330 329 328 327 326 326 327 327 328 329 330 331 332 332 333 334 335 336 336 336
113 113 112 112 112 112 112 113 113 114 114 115 115 116 117 119 119 119 119 119 119 119 119 120 121 121 120 119 120 120 119 118 117 116 114 113 110 109 108 107 103 99 96 93 86 79 73 67 56 41 30 26 14 355 347 345 343 340 337 334 333 333 336 335 334 333 331 330 329 328 327 326 326 326 327 327 328 329 330 331 332 332 333 334 334 335 336 335
112 112 112 112 113 113 114 114 115 116 116 117 118 119 120 120 120 120 120 120 120 120 121 121 122 121 120 119 120 119 118 117 115 114 113 112 108 106 106 104 100 96 93 89 82 76 71 65 54 34 20 14 359 344 340 339 338 337 334 332 331 332 334 334 333 331 330 329 327 326 325 325 325 325 326 326 327 328 329 330 331 332 332 333 333 334 335 334
112 112 113 113 114 114 115 116 117 118 119 119 120 121 121 121 121 121 121 121 120 121 121 122 121 120 119 120 119 118 117 115 113 112 111 110 107 105 105 104 100 96 91 85 76 68 58 49 39 19 13 4 346 337 334 333 334 333 331 330 330 332 333 333 331 329 328 327 325 324 324 323 323 324 324 325 326 327 328 330 331 331 332 332 332 333 333 334
113 114 114 115 116 116 117 118 119 120 121 122 122 122 122 122 122 122 122 121 121 122 122 122 120 120 120 119 117 116 116 113 111 110 110 110 108 106 106 105 101 98 93 83 68 53 33 12 351 341 351 350 337 331 329 329 330 329 329 329 331 332 332 331 328 326 325 324 323 323 322 322 322 323 324 324 325 326 328 329 330 330 331 331 332 332 333 334
115 116 117 117 118 119 120 121 121 122 122 123 123 123 123 123 123 123 122 122 122 122 122 122 119 120 120 118 115 115 114 111 109 111 112 112 108 105 105 103 102 100 90 74 54 31 4 339 331 326 329 336 330 325 325 327 328 328 329 329 330 331 330 328 325 324 322 321 321 321 321 322 322 322 323 324 325 326 327 328 329 329 330 331 331 332 333 334
117 118 119 120 120 121 122 122 122 123 123 124 124 124 125 125 124 123 123 124 123 123 123 121 119 121 120 117 115 114 111 108 109 112 112 109 106 105 105 99 93 87 75 56 27 359 336 326 328 324 323 329 327 322 322 324 326 327 328 328 328 328 327 325 323 322 321 320 320 320 320 321 322 322 323 324 325 326 327 327 328 329 330 330 331 332 333 335
119 120 121 122 122 123 123 123 123 124 124 124 124 125 125 125 125 124 124 124 123 122 121 118 119 122 119 116 115 112 109 107 108 108 106 102 102 102 98 87 70 55 48 28 358 339 332 330 326 322 324 328 325 320 319 320 322 324 326 326 325 326 325 324 322 321 320 319 319 319 320 321 322 323 323 323 324 325 326 326 328 329 330 331 332 333 334 335
121 122 122 123 123 124 124 124 124 125 125 125 125 125 125 125 125 125 125 125 122 121 117 117 122 122 118 116 114 111 109 108 106 105 103 99 92 83 87 70 11 326 313 342 343 335 330 326 322 322 327 327 321 318 317 318 320 322 324 324 324 324 323 323 322 320 319 319 318 319 320 321 322 323 323 323 324 325 326 327 329 330 331 331 332 334 335 336
123 123 124 124 124 124 125 126 126 126 126 125 124 124 124 125 125 124 125 124 121 118 116 119 124 121 116 113 110 108 109 109 108 106 106 104 88 34 330 333 317 295 301 330 333 325 320 320 323 327 326 321 317 315 316 318 320 322 323 323 323 323 322 322 321 320 319 319 319 319 321 322 322 322 323 323 324 326 327 329 330 330 331 332 333 334 335 336
124 125 125 125 125 126 127 127 127 127 127 126 125 124 124 124 123 123 124 122 119 117 119 123 125 120 117 114 111 109 111 118 118 114 116 126 66 352 328 312 297 295 312 322 318 316 319 323 326 324 320 316 314 314 315 317 319 321 322 322 322 323 322 321 320 318 318 319 320 319 320 322 321 321 322 324 325 327 328 329 330 330 331 332 333 334 335 335
126 126 126 126 127 127 128 129 129 129 129 128 127 126 126 126 122 120 121 120 118 119 124 128 127 123 122 122 121 120 134 164 166 166 234 299 323 321 304 291 291 306 316 316 318 322 323 322 320 318 317 315 314 314 315 317 319 320 321 321 322 322 321 320 318 318 318 319 320 320 320 321 322 321 323 325 326 327 328 329 329 330 332 332 333 333 334 334
127 128 128 128 129 129 130 130 130 131 130 130 129 129 130 129 123 120 120 118 117 122 129 131 128 129 130 134 142 153 199 218 220 236 277 303 306 298 289 290 302 314 317 320 322 320 316 314 314 315 315 314 313 314 316 319 320 320 320 321 321 320 319 318 317 317 318 318 320 322 321 320 322 322 322 324 325 327 328 328 329 331 332 332 332 332 332 333
129 129 130 130 130 131 131 132 132 131 131 131 131 132 133 131 125 124 124 121 120 126 133 133 134 141 150 166 199 226 238 251 266 279 291 294 293 292 293 303 311 315 318 319 317 313 310 310 312 313 314 314 316 317 319 320 320 320 320 320 319 318 317 317 317 317 318 318 318 321 321 319 320 323 323 325 326 326 328 329 329 330 331 331 331 331 331 332
131 131 132 132 132 132 133 133 132 132 132 132 132 133 134 131 127 128 130 129 131 136 138 142 149 169 200 237 264 265 270 283 292 297 298 295 294 296 300 307 311 312 314 314 312 311 312 312 313 314 315 316 318 319 320 320 319 319 318 317 317 317 317 316 317 317 317 318 318 319 321 319 319 323 325 325 326 326 327 328 329 329 330 330 330 330 330 331
133 133 133 134 134 134 134 134 134 134 135 134 134 134 135 133 131 133 137 140 143 146 152 164 203 259 273 286 292 291 297 302 303 303 302 300 300 302 304 307 309 310 310 311 312 313 313 314 314 314 316 317 317 318 318 317 317 317 316 316 316 316 317 317 317 317 317 318 318 318 319 320 320 323 325 325 325 326 326 327 328 328 329 329 329 329 330 330
135 136 136 136 136 136 137 137 137 138 139 138 137 137 138 138 138 141 146 152 152 160 204 251 283 294 299 304 306 307 307 306 305 305 303 303 303 304 305 306 307 308 308 310 312 312 313 313 313 315 315 316 316 316 316 315 315 315 315 315 316 316 317 317 317 317 317 317 317 316 317 320 321 321 324 324 324 325 325 325 326 327 327 328 328 328 329 329
138 139 139 139 140 140 141 142 143 144 145 144 143 145 146 148 150 152 160 169 175 258 286 290 296 304 309 311 312 310 307 304 303 303 302 302 302 302 303 303 305 306 308 310 311 311 312 313 314 315 315 315 315 314 314 314 314 314 315 315 315 316 315 316 316 316 316 315 315 315 316 319 321 320 321 322 322 323 323 324 325 326 326 326 327 327 327 328
142 142 142 143 144 145 146 147 148 150 152 152 152 156 160 165 169 175 196 209 236 278 286 289 292 300 306 309 311 310 306 302 300 300 300 300 299 299 300 301 303 306 308 309 310 310 312 313 313 313 313 313 313 313 312 313 313 313 314 314 315 315 315 315 315 315 316 315 315 316 316 317 319 319 319 320 321 322 323 323 324 325 325 325 326 326 327 327
147 147 148 150 151 152 153 154 156 160 163 163 165 171 181 193 200 213 234 245 262 274 278 282 286 292 298 302 307 309 307 303 300 299 298 298 297 298 299 301 303 305 306 307 309 310 311 312 312 311 311 311 311 312 312 312 312 312 313 313 313 313 314 315 315 316 317 317 316 316 316 316 317 318 319 320 321 322 323 323 324 324 324 325 325 326 326 327
152 153 155 158 159 161 163 166 169 173 178 181 187 196 212 228 235 244 257 265 272 276 278 281 285 290 293 298 302 305 305 302 299 298 298 298 298 298 300 301 303 304 306 308 309 310 310 310 310 310 310 310 310 311 311 311 311 311 311 311 310 311 312 313 315 315 317 317 316 315 315 314 315 317 319 320 321 322 323 323 323 324 324 325 324 324 325 326
159 160 163 165 168 172 175 179 184 190 197 205 213 223 235 246 253 259 265 270 273 276 278 280 283 286 290 294 298 301 301 300 299 298 298 298 298 299 300 302 304 306 307 308 309 309 309 309 309 310 310 310 309 309 310 310 310 309 309 309 309 309 309 310 310 311 313 314 314 314 314 313 314 316 318 319 320 322 323 322 322 323 323 323 323 324 324 325
168 170 172 174 179 184 188 195 201 207 214 221 228 235 243 249 255 260 264 269 272 274 277 279 282 285 288 292 295 297 298 298 298 298 298 299 300 301 302 304 305 306 306 307 307 308 308 308 308 309 309 309 309 308 308 308 308 308 307 308 308 308 308 309 309 309 310 312 313 314 315 313 313 315 318 319 321 321 322 321 321 321 321 322 323 323 324 325
179 182 185 188 192 197 203 210 215 221 226 231 236 242 246 251 257 261 266 270 273 276 278 280 283 286 288 291 294 296 297 298 298 299 299 300 301 302 302 303 304 304 305 305 306 307 308 308 307 308 308 308 308 307 307 307 307 307 307 307 307 307 308 308 309 309 310 311 313 314 315 313 312 315 318 318 320 320 320 320 320 320 320 322 323 323 324 324
192 197 200 203 207 212 218 223 229 233 237 241 245 249 252 257 261 265 269 272 275 278 280 283 285 287 289 291 293 295 296 297 298 299 300 300 300 301 302 302 303 303 304 304 305 306 307 307 306 306 307 307 307 307 307 307 306 306 306 305 305 306 306 307 308 308 309 311 312 313 315 313 311 315 317 317 319 319 319 319 319 320 321 322 323 323 323 324
204 209 213 217 220 223 228 233 238 243 247 250 253 256 259 262 265 268 272 275 277 280 282 284 286 288 290 291 293 294 295 296 297 298 299 299 300 300 301 301 301 302 302 303 303 304 305 306 305 305 305 305 306 306 307 306 306 306 306 305 305 304 305 305 306 307 307 309 310 312 315 313 311 315 316 316 319 319 318 319 319 320 321 321 323 323 324 324
214 218 222 226 229 232 235 239 243 247 252 255 258 261 264 266 269 271 274 277 279 281 283 285 287 288 289 291 292 293 294 295 297 298 298 299 299 300 300 300 301 301 301 301 302 302 303 305 305 305 304 304 304 304 305 305 305 306 306 305 305 304 304 304 305 306 306 308 309 311 316 315 312 315 316 316 319 320 319 320 320 320 320 321 323 324 324 324
220 224 228 232 235 238 241 244 247 251 255 259 261 264 267 269 272 274 276 278 280 282 284 285 287 288 289 291 292 293 294 295 296 297 297 298 298 299 299 299 300 300 300 301 301 302 302 303 304 304 303 304 303 303 303 304 304 305 305 305 304 303 304 305 306 307 307 309 310 311 318 317 313 315 316 316 320 321 320 320 319 319 320 321 323 324 323 323
225 229 232 236 239 243 246 249 252 255 259 262 265 268 270 272 274 276 277 279 281 283 284 286 288 289 290 291 292 293 294 294 295 296 296 297 297 298 298 298 299 299 300 300 300 301 301 302 303 303 303 303 303 302 302 303 303 304 304 304 303 304 305 305 307 308 309 312 311 312 319 319 314 316 317 318 321 322 320 319 318 319 320 321 322 323 323 322
232 235 238 241 245 247 251 254 257 260 263 265 268 270 272 274 275 277 278 280 282 284 285 287 288 289 290 291 292 292 294 294 295 295 296 296 296 297 297 297 298 298 299 299 299 299 300 301 302 303 303 303 303 303 303 303 304 305 305 305 304 306 306 306 307 309 310 312 311 312 319 319 316 316 317 318 321 321 318 317 317 319 320 320 322 323 323 322
238 241 243 246 249 252 254 257 260 262 265 267 270 272 273 275 276 278 279 281 282 283 285 286 287 288 289 290 291 292 293 294 294 295 295 295 296 296 296 296 297 297 297 298 298 298 299 300 301 302 302 303 303 303 303 304 305 306 306 306 306 307 307 307 308 309 311 312 311 313 317 318 316 316 316 318 320 319 317 316 317 318 319 320 321 322 322 321
243 246 248 251 253 255 257 260 262 265 267 268 270 272 274 275 277 278 279 280 281 282 284 285 286 287 288 289 290 291 292 293 294 294 295 295 295 295 295 296 296 296 297 297 297 298 298 299 299 300 301 302 303 303 304 305 306 307 307 307 308 308 307 307 308 309 311 311 311 314 315 316 317 315 315 318 319 317 316 315 316 317 318 319 320 321 321 321
250 252 254 256 258 260 262 264 266 267 269 271 272 274 275 276 277 278 279 280 281 282 283 284 285 286 288 289 290 290 291 292 292 293 294 294 295 295 295 295 296 296 296 296 297 297 298 298 298 298 299 300 301 302 303 304 305 306 307 307 307 306 305 306 307 308 309 310 312 314 313 316 318 315 316 318 317 315 315 315 315 317 317 318 318 319 320 319
255 257 259 261 262 264 265 267 269 270 272 273 274 275 276 277 278 278 279 280 281 282 283 284 286 287 288 289 289 290 291 291 292 292 293 293 294 294 295 295 296 296 296 296 297 297 298 299 299 299 299 300 300 300 301 301 303 304 304 304 304 304 304 305 306 307 308 309 312 313 313 316 318 315 316 317 314 314 314 314 314 315 315 316 316 317 318 317
260 261 263 264 266 267 268 270 271 272 273 274 276 276 277 278 279 280 281 281 282 283 284 285 286 287 288 289 289 290 291 291 292 292 293 293 293 294 295 295 296 296 296 297 297 297 298 299 300 300 301 302 302 302 302 303 304 304 304 304 303 303 304 305 306 308 309 310 313 313 313 316 316 314 315 314 311 312 312 311 312 312 313 313 314 315 316 315
263 265 266 267 268 270 271 272 273 274 275 277 277 278 279 280 281 281 282 283 283 284 285 286 286 287 288 288 289 290 291 292 292 293 293 293 294 294 295 295 296 296 297 297 297 298 298 299 300 300 301 302 303 303 303 304 305 305 305 304 304 304 305 306 308 309 309 310 313 313 313 315 314 313 313 311 309 310 310 309 309 310 311 311 312 313 314 313
266 267 268 269 271 272 273 275 276 277 278 278 279 280 280 281 281 282 282 283 284 284 285 286 286 287 288 289 289 290 291 292 293 294 294 295 295 295 296 296 297 297 298 298 298 298 299 299 300 300 302 302 302 303 303 304 305 305 304 303 303 304 305 307 308 308 308 310 312 312 312 313 313 312 311 309 309 309 309 308 309 310 310 310 311 312 312 311
268 270 271 272 273 274 275 276 277 278 278 279 279 280 280 281 281 282 283 284 284 285 286 286 287 288 289 290 290 291 291 292 292 293 294 295 296 296 297 297 298 298 299 299 299 299 300 300 300 301 302 302 302 302 303 304 304 305 304 302 303 304 306 307 307 307 307 309 310 310 310 311 311 310 309 308 308 308 308 309 309 309 309 309 310 311 311 311
269 270 272 273 273 274 275 276 277 277 278 278 279 280 280 281 282 283 284 285 286 287 287 288 288 289 290 290 291 291 291 292 292 293 293 294 295 296 297 297 298 298 299 299 299 300 300 300 300 301 302 302 301 301 302 303 304 304 302 301 302 304 305 305 305 305 306 308 308 308 308 309 309 307 307 307 307 307 308 309 309 308 308 308 309 310 310 310
269 270 271 272 273 274 275 275 276 277 278 279 279 280 281 282 283 284 285 286 286 287 288 289 289 290 291 291 292 292 292 293 294 294 294 295 295 296 296 297 297 297 298 298 298 299 299 300 300 300 301 301 300 300 301 303 304 303 301 300 301 303 303 303 303 304 305 306 306 306 307 307 306 305 305 306 306 306 307 308 307 306 306 308 309 309 308 308
268 269 270 271 272 273 274 275 276 277 278 279 280 281 282 283 284 284 285 286 287 288 288 289 290 290 291 292 293 293 294 294 295 295 296 296 296 296 297 297 297 297 297 298 298 298 299 299 299 300 300 300 300 300 301 302 302 302 301 300 301 301 301 301 302 303 304 304 304 305 305 305 305 304 304 304 304 305 306 306 305 305 305 306 307 307 307 307
Height
10665 10663 10661 10660 10659 10659 10659 10659 10659 10660 10661 10662 10663 10664 10665 10666 10667 10668 10669 10670 10672 10674 10676 10678 10680 10682 10685 10687 10689 10692 10694 10697 10700 10703 10706 10710 10713 10716 10719 10721 10723 10725 10727 10729 10732 10734 10737 10740 10742 10743 10745 10746 10748 10749 10749 10750 10751 10751 10752 10752 10752 10752 10752 10751 10751 10750 10749 10748 10747 10746 10745 10743 10741 10740 10738 10736 10734 10733 10730 10728 10725 10723 10720 10717 10715 10712 10709 10706
10659 10657 10656 10656 10655 10656 10656 10657 10657 10658 10660 10661 10662 10663 10664 10664 10665 10667 10668 10670 10672 10674 10676 10678 10681 10683 10685 10688 10690 10693 10696 10700 10703 10706 10709 10712 10715 10718 10721 10723 10725 10727 10729 10732 10735 10737 10740 10742 10743 10745 10746 10747 10748 10749 10750 10750 10751 10751 10751 10752 10752 10752 10751 10750 10750 10749 10748 10747 10746 10744 10743 10741 10740 10738 10736 10734 10732 10730 10728 10725 10722 10720 10717 10714 10712 10709 10706 10703
10654 10653 10653 10653 10653 10654 10654 10655 10656 10658 10659 10660 10661 10662 10663 10664 10665 10667 10669 10671 10673 10675 10677 10679 10682 10684 10687 10690 10693 10696 10699 10703 10706 10709 10712 10714 10717 10720 10723 10725 10727 10730 10732 10734 10737 10739 10741 10743 10745 10746 10747 10748 10749 10750 10751 10751 10751 10752 10752 10752 10752 10751 10750 10750 10749 10748 10747 10746 10744 10743 10741 10740 10738 10736 10734 10732 10730 10728 10725 10723 10720 10717 10714 10711 10708 10705 10702 10699
10651 10651 10651 10651 10652 10653 10654 10655 10656 10657 10658 10659 10660 10662 10663 10665 10666 10668 10670 10672 10674 10676 10678 10681 10683 10686 10690 10693 10696 10700 10703 10707 10710 10712 10714 10717 10720 10723 10726 10728 10731 10733 10735 10737 10739 10741 10743 10744 10746 10747 10748 10748 10749 10750 10751 10751 10752 10752 10752 10752 10751 10751 10750 10749 10748 10747 10746 10745 10743 10741 10740 10738 10736 10734 10732 10730 10727 10725 10723 10720 10717 10714 10711 10708 10704 10701 10698 10694
10650 10650 10650 10651 10652 10653 10654 10655 10656 10657 10659 10660 10661 10663 10664 10666 10667 10669 10671 10673 10675 10678 10680 10683 10686 10690 10693 10697 10701 10704 10707 10711 10713 10716 10718 10721 10724 10727 10729 10732 10734 10736 10738 10740 10742 10744 10745 10746 10747 10748 10749 10750 10750 10751 10751 10751 10752 10752 10752 10751 10751 10750 10749 10748 10747 10746 10745 10743 10742 10740 10738 10736 10734 10732 10729 10727 10725 10722 10720 10717 10714 10711 10707 10704 10700 10697 10693 10690
10649 10650 10650 10651 10652 10653 10655 10656 10657 10658 10660 10661 10662 10664 10666 10667 10669 10671 10673 10676 10679 10681 10684 10687 10690 10694 10698 10701 10705 10709 10712 10715 10718 10720 10722 10725 10728 10730 10733 10735 10737 10739 10741 10742 10744 10746 10747 10748 10749 10750 10750 10751 10752 10752 10752 10752 10752 10752 10752 10751 10750 10749 10748 10747 10746 10745 10743 10742 10740 10738 10736 10734 10731 10729 10726 10724 10721 10719 10716 10713 10710 10707 10704 10700 10697 10693 10690 10686
10650 10651 10651 10652 10653 10655 10656 10657 10659 10660 10661 10663 10664 10666 10668 10670 10672 10675 10678 10681 10684 10687 10689 10692 10695 10699 10703 10707 10710 10713 10716 10720 10722 10724 10726 10729 10731 10734 10736 10739 10740 10742 10744 10745 10746 10747 10748 10749 10750 10751 10751 10752 10753 10753 10752 10752 10752 10752 10751 10750 10749 10748 10747 10746 10744 10743 10741 10740 10738 10736 10734 10731 10729 10726 10724 10721 10719 10716 10713 10711 10708 10704 10701 10697 10693 10689 10686 10682
10652 10652 10653 10654 10655 10657 10658 10659 10661 10662 10664 10665 10667 10670 10672 10674 10677 10680 10684 10687 10690 10692 10694 10697 10701 10705 10708 10712 10716 10719 10720 10723 10726 10728 10730 10733 10736 10738 10740 10742 10743 10745 10746 10747 10748 10749 10749 10750 10751 10751 10752 10753 10753 10753 10753 10753 10752 10751 10750 10750 10748 10747 10746 10745 10743 10741 10739 10738 10736 10734 10731 10729 10726 10724 10721 10719 10716 10713 10710 10707 10704 10701 10697 10693 10689 10685 10682 10678
10654 10654 10655 10657 10658 10659 10661 10662 10664 10665 10667 10670 10672 10675 10677 10680 10683 10686 10690 10693 10695 10697 10700 10703 10706 10710 10713 10717 10720 10724 10726 10727 10730 10732 10735 10737 10739 10742 10743 10745 10746 10747 10748 10749 10750 10751 10751 10752 10752 10752 10752 10753 10754 10753 10753 10752 10752 10751 10750 10748 10747 10746 10745 10743 10741 10739 10737 10735 10733 10731 10729 10726 10724 10721 10718 10716 10713 10710 10707 10704 10700 10697 10693 10689 10685 10681 10678 10674
10657 10657 10659 10660 10661 10662 10664 10665 10668 10670 10672 10675 10677 10680 10683 10686 10690 10693 10695 10697 10700 10702 10705 10709 10712 10715 10718 10721 10724 10728 10731 10732 10734 10736 10738 10740 10742 10744 10746 10747 10748 10749 10750 10751 10752 10752 10753 10753 10753 10753 10753 10753 10753 10753 10752 10752 10751 10750 10748 10747 10746 10744 10743 10741 10739 10737 10735 10733 10731 10728 10726 10723 10721 10718 10715 10712 10709 10706 10703 10699 10696 10692 10689 10685 10681 10677 10673 10669
10660 10661 10662 10663 10665 10666 10668 10670 10673 10675 10678 10680 10683 10686 10689 10693 10696 10699 10701 10702 10704 10707 10711 10714 10717 10720 10722 10725 10728 10732 10735 10736 10738 10740 10742 10744 10745 10747 10748 10750 10751 10751 10752 10753 10753 10753 10753 10754 10754 10754 10754 10753 10753 10753 10752 10751 10750 10748 10747 10746 10744 10742 10741 10738 10736 10734 10732 10730 10728 10725 10722 10720 10717 10715 10712 10709 10706 10703 10699 10695 10691 10687 10684 10681 10677 10673 10669 10665
10665 10666 10667 10668 10670 10672 10674 10676 10678 10681 10684 10686 10689 10693 10696 10699 10701 10704 10706 10708 10710 10713 10715 10719 10722 10725 10727 10729 10732 10736 10739 10740 10742 10743 10745 10747 10748 10749 10751 10752 10753 10753 10754 10755 10755 10754 10754 10754 10755 10755 10754 10753 10753 10752 10751 10750 10748 10747 10746 10744 10742 10740 10738 10736 10734 10731 10729 10727 10724 10722 10719 10717 10714 10712 10709 10706 10702 10698 10694 10690 10686 10683 10679 10676 10672 10668 10664 10660
10670 10671 10672 10674 10676 10678 10680 10682 10685 10687 10690 10693 10695 10699 10702 10705 10707 10710 10712 10714 10716 10718 10721 10723 10727 10729 10731 10733 10737 10739 10741 10743 10745 10746 10747 10748 10750 10752 10753 10754 10755 10755 10755 10756 10755 10755 10755 10755 10755 10755 10754 10753 10752 10752 10751 10749 10747 10746 10744 10742 10740 10738 10736 10733 10731 10728 10726 10724 10721 10719 10716 10714 10711 10709 10705 10702 10698 10694 10690 10687 10683 10679 10675 10671 10667 10664 10660 10657
10675 10677 10678 10680 10682 10684 10686 10689 10691 10694 10696 10699 10701 10704 10707 10710 10713 10715 10717 10720 10722 10724 10726 10729 10731 10733 10734 10737 10740 10742 10744 10745 10747 10748 10750 10750 10751 10752 10754 10755 10756 10756 10757 10757 10756 10756 10756 10755 10755 10755 10754 10752 10752 10751 10749 10748 10746 10744 10742 10740 10738 10736 10733 10731 10728 10726 10723 10721 10718 10716 10713 10711 10708 10705 10701 10698 10695 10691 10688 10683 10679 10675 10671 10667 10663 10660 10656 10653
10681 10683 10685 10687 10689 10691 10693 10695 10698 10700 10702 10705 10707 10710 10712 10715 10718 10720 10722 10725 10727 10729 10732 10734 10736 10737 10738 10741 10742 10744 10747 10748 10749 10750 10751 10752 10752 10753 10755 10756 10756 10756 10757 10757 10756 10756 10756 10756 10755 10754 10752 10752 10751 10750 10748 10746 10744 10742 10740 10738 10736 10733 10730 10728 10726 10723 10721 10718 10716 10713 10710 10707 10704 10701 10698 10695 10692 10688 10684 10680 10676 10672 10668 10663 10659 10656 10652 10648
10687 10689 10691 10693 10695 10697 10700 10702 10705 10706 10708 10710 10712 10715 10717 10719 10722 10725 10727 10729 10732 10735 10737 10738 10740 10742 10743 10743 10745 10746 10748 10749 10750 10752 10753 10754 10754 10755 10756 10756 10756 10756 10756 10756 10756 10756 10756 10755 10754 10753 10751 10750 10749 10748 10747 10744 10742 10741 10739 10736 10733 10731 10728 10726 10724 10721 10719 10716 10713 10710 10706 10703 10700 10697 10694 10691 10688 10684 10680 10676 10672 10668 10664 10660 10656 10651 10647 10643
10693 10695 10697 10699 10701 10704 10706 10708 10711 10713 10715 10716 10718 10719 10721 10724 10726 10729 10731 10734 10736 10738 10741 10741 10742 10745 10746 10746 10747 10749 10750 10751 10753 10754 10755 10756 10756 10756 10757 10757 10757 10757 10756 10756 10755 10755 10755 10754 10754 10752 10751 10749 10748 10746 10745 10743 10740 10738 10736 10734 10731 10729 10726 10724 10721 10719 10716 10714 10711 10707 10704 10700 10696 10693 10690 10687 10683 10680 10676 10672 10668 10664 10660 10656 10652 10647 10642 10637
10699 10701 10703 10705 10707 10710 10712 10714 10716 10718 10721 10722 10724 10725 10727 10728 10730 10733 10735 10737 10739 10741 10744 10744 10745 10747 10749 10749 10750 10752 10752 10753 10755 10756 10757 10757 10757 10757 10757 10757 10757 10756 10756 10755 10755 10755 10754 10754 10752 10751 10749 10748 10746 10745 10743 10741 10738 10736 10734 10732 10729 10726 10724 10721 10718 10716 10713 10710 10707 10704 10701 10697 10693 10689 10686 10682 10679 10675 10671 10668 10664 10660 10656 10651 10647 10642 10636 10631
10705 10707 10709 10710 10713 10715 10717 10719 10722 10724 10726 10728 10730 10732 10733 10734 10735 10736 10739 10741 10742 10744 10746 10748 10750 10751 10751 10752 10753 10753 10754 10755 10756 10757 10757 10757 10757 10757 10757 10757 10757 10756 10756 10755 10755 10754 10753 10752 10751 10750 10748 10746 10744 10743 10741 10739 10737 10734 10732 10729 10727 10724 10721 10718 10715 10712 10710 10706 10703 10701 10697 10693 10689 10685 10681 10677 10674 10670 10667 10662 10659 10654 10650 10645 10641 10635 10630 10624
10711 10713 10714 10716 10718 10720 10722 10724 10727 10729 10731 10733 10735 10737 10739 10740 10740 10740 10743 10744 10745 10747 10748 10751 10754 10754 10753 10754 10755 10755 10755 10756 10756 10757 10757 10757 10758 10758 10758 10757 10757 10756 10755 10754 10753 10752 10751 10750 10749 10748 10746 10744 10743 10741 10739 10737 10734 10732 10729 10726 10724 10721 10718 10715 10712 10709 10706 10703 10699 10696 10693 10688 10684 10680 10676 10672 10668 10665 10661 10657 10652 10648 10643 10639 10634 10629 10623 10618
10717 10718 10720 10722 10723 10725 10727 10729 10732 10734 10736 10738 10740 10742 10744 10745 10746 10746 10747 10747 10748 10749 10751 10753 10756 10756 10756 10756 10757 10758 10757 10757 10757 10757 10758 10758 10758 10758 10757 10757 10756 10756 10754 10753 10752 10751 10750 10748 10747 10745 10744 10742 10741 10739 10736 10734 10731 10728 10725 10723 10720 10717 10714 10711 10708 10705 10702 10699 10695 10691 10689 10684 10679 10676 10672 10667 10664 10660 10655 10651 10646 10642 10637 10632 10628 10622 10617 10612
10722 10724 10725 10727 10728 10730 10732 10734 10735 10738 10740 10742 10744 10746 10748 10750 10750 10751 10752 10750 10750 10751 10753 10756 10757 10757 10758 10758 10758 10759 10759 10759 10759 10759 10759 10758 10758 10758 10757 10757 10756 10754 10753 10751 10750 10749 10747 10746 10744 10743 10742 10740 10738 10736 10734 10731 10728 10725 10722 10719 10716 10713 10710 10707 10704 10701 10698 10695 10691 10686 10684 10681 10675 10671 10668 10663 10659 10655 10649 10645 10641 10636 10631 10626 10621 10616 10611 10607
10726 10728 10730 10732 10733 10735 10737 10738 10739 10741 10742 10744 10746 10748 10751 10753 10754 10755 10756 10755 10753 10754 10755 10757 10758 10758 10759 10759 10759 10759 10760 10760 10760 10759 10759 10759 10758 10757 10757 10756 10754 10753 10751 10750 10748 10747 10745 10744 10743 10741 10740 10738 10736 10733 10730 10728 10725 10722 10718 10715 10712 10709 10706 10703 10700 10697 10694 10691 10688 10682 10677 10676 10671 10665 10662 10659 10654 10650 10645 10640 10636 10631 10626 10620 10615 10611 10606 10601
10731 10732 10734 10736 10737 10739 10741 10742 10743 10745 10746 10747 10748 10750 10753 10755 10755 10756 10758 10758 10757 10757 10758 10759 10759 10760 10760 10760 10760 10760 10760 10760 10760 10759 10759 10758 10758 10757 10756 10754 10752 10751 10749 10748 10746 10745 10744 10743 10741 10739 10737 10735 10733 10730 10727 10724 10721 10718 10715 10712 10709 10706 10703 10700 10696 10692 10689 10686 10685 10681 10672 10669 10668 10662 10656 10653 10649 10645 10641 10635 10630 10626 10620 10615 10610 10605 10601 10596
10734 10736 10738 10739 10741 10743 10744 10746 10747 10748 10749 10750 10751 10752 10754 10756 10756 10757 10759 10760 10760 10760 10761 10761 10761 10761 10761 10761 10761 10761 10761 10760 10760 10759 10758 10758 10757 10756 10755 10753 10751 10750 10748 10747 10745 10744 10742 10741 10739 10736 10734 10732 10729 10726 10723 10720 10717 10714 10712 10709 10706 10703 10699 10696 10692 10688 10685 10681 10679 10678 10671 10663 10663 10661 10653 10648 10643 10638 10635 10630 10624 10620 10615 10611 10606 10600 10595 10590
10738 10739 10741 10743 10744 10746 10747 10749 10750 10751 10752 10753 10754 10755 10756 10757 10757 10758 10759 10761 10762 10762 10762 10762 10762 10762 10762 10762 10762 10761 10761 10760 10760 10759 10758 10757 10756 10755 10753 10752 10750 10749 10747 10746 10744 10742 10740 10738 10736 10733 10731 10728 10726 10723 10720 10717 10714 10711 10708 10705 10702 10699 10695 10692 10688 10684 10680 10677 10673 10672 10670 10660 10655 10656 10650 10643 10637 10631 10628 10625 10620 10615 10610 10606 10601 10595 10590 10585
10742 10743 10744 10746 10747 10748 10750 10751 10753 10754 10755 10756 10756 10757 10758 10759 10759 10760 10761 10761 10762 10763 10763 10763 10763 10763 10763 10762 10762 10761 10761 10760 10759 10758 10757 10756 10755 10754 10752 10751 10749 10747 10745 10744 10742 10740 10737 10735 10733 10730 10728 10725 10722 10720 10717 10714 10711 10708 10705 10701 10698 10694 10691 10687 10684 10680 10675 10672 10668 10664 10664 10658 10650 10650 10648 10640 10634 10628 10622 10618 10615 10610 10606 10601 10596 10590 10584 10579
10745 10746 10747 10748 10750 10751 10752 10754 10755 10756 10757 10758 10758 10759 10760 10760 10760 10761 10761 10762 10763 10763 10764 10764 10763 10763 10762 10762 10761 10761 10760 10759 10758 10757 10756 10755 10754 10753 10751 10749 10747 10745 10743 10741 10739 10737 10735 10733 10730 10727 10724 10722 10719 10716 10713 10710 10707 10704 10700 10697 10694 10690 10687 10683 10679 10675 10670 10666 10663 10658 10657 10656 10648 10644 10644 10639 10632 10626 10619 10614 10610 10606 10601 10596 10590 10585 10580 10574
10748 10749 10750 10751 10752 10754 10755 10756 10757 10758 10759 10759 10760 10760 10761 10761 10761 10762 10762 10763 10763 10763 10763 10763 10762 10762 10762 10761 10761 10760 10759 10758 10757 10756 10755 10754 10752 10751 10749 10747 10745 10743 10740 10738 10736 10734 10731 10729 10726 10723 10721 10718 10715 10712 10709 10706 10703 10700 10696 10692 10690 10686 10682 10679 10675 10672 10667 10661 10658 10653 10650 10651 10648 10641 10638 10636 10631 10625 10618 10611 10606 10601 10595 10590 10585 10579 10574 10569
10751 10752 10753 10754 10755 10756 10757 10758 10759 10760 10760 10761 10761 10761 10762 10762 10762 10762 10762 10762 10762 10762 10762 10762 10761 10761 10761 10760 10760 10759 10758 10757 10756 10754 10753 10752 10750 10748 10746 10744 10742 10740 10737 10735 10733 10730 10728 10725 10723 10720 10717 10714 10711 10708 10705 10702 10699 10695 10692 10688 10685 10682 10678 10675 10671 10667 10663 10656 10652 10649 10644 10642 10643 10639 10633 10631 10628 10623 10616 10608 10602 10595 10589 10584 10579 10574 10568 10563
10754 10755 10756 10757 10757 10758 10759 10760 10760 10761 10762 10762 10762 10762 10763 10763 10763 10763 10762 10762 10762 10762 10762 10761 10761 10760 10759 10759 10758 10757 10756 10755 10754 10752 10750 10749 10747 10745 10743 10741 10739 10737 10734 10732 10729 10727 10725 10722 10719 10716 10714 10711 10708 10705 10701 10698 10695 10691 10688 10685 10682 10678 10674 10670 10666 10662 10658 10652 10646 10643 10639 10635 10634 10633 10629 10624 10621 10617 10611 10605 10598 10591 10584 10577 10572 10567 10562 10557
10756 10757 10758 10758 10759 10760 10760 10761 10762 10762 10763 10763 10763 10763 10763 10763 10763 10763 10763 10762 10762 10761 10761 10760 10759 10759 10758 10757 10756 10755 10754 10752 10751 10749 10748 10746 10744 10742 10740 10738 10736 10733 10731 10728 10726 10723 10721 10719 10716 10713 10710 10707 10704 10701 10698 10694 10691 10687 10684 10681 10678 10675 10672 10667 10663 10659 10655 10649 10642 10637 10634 10629 10627 10625 10623 10618 10614 10610 10604 10598 10593 10587 10580 10573 10566 10561 10556 10551
10758 10759 10759 10760 10761 10761 10762 10762 10763 10763 10763 10764 10764 10764 10764 10763 10763 10763 10762 10762 10761 10760 10760 10759 10758 10757 10756 10755 10754 10753 10752 10750 10749 10747 10745 10743 10741 10739 10737 10735 10733 10730 10728 10725 10723 10720 10718 10715 10712 10709 10706 10703 10700 10697 10694 10690 10686 10682 10679 10676 10672 10669 10667 10665 10661 10658 10655 10649 10641 10633 10627 10623 10621 10621 10618 10614 10609 10604 10599 10592 10586 10582 10577 10570 10563 10556 10550 10544
10760 10760 10761 10761 10762 10762 10763 10763 10763 10763 10763 10763 10763 10763 10763 10762 10762 10761 10761 10760 10759 10759 10758 10757 10756 10755 10754 10753 10752 10750 10749 10748 10746 10744 10742 10740 10739 10737 10735 10732 10730 10728 10725 10722 10720 10717 10714 10711 10708 10706 10702 10698 10695 10692 10689 10686 10682 10677 10673 10670 10667 10662 10660 10658 10655 10653 10652 10649 10641 10633 10622 10613 10613 10616 10613 10609 10604 10599 10594 10587 10581 10576 10571 10566 10558 10550 10544 10538
10761 10761 10761 10762 10762 10762 10763 10763 10763 10763 10763 10763 10762 10762 10761 10761 10760 10760 10759 10758 10758 10757 10756 10755 10754 10753 10752 10751 10749 10748 10747 10745 10743 10742 10740 10738 10736 10734 10732 10730 10726 10724 10721 10719 10716 10713 10710 10707 10704 10702 10698 10694 10690 10686 10683 10681 10677 10672 10668 10664 10661 10658 10654 10650 10647 10644 10642 10643 10640 10634 10624 10607 10603 10609 10607 10603 10600 10594 10588 10583 10576 10570 10564 10559 10552 10544 10537 10531
10761 10761 10762 10762 10762 10762 10762 10763 10763 10762 10762 10762 10761 10761 10760 10760 10759 10758 10758 10757 10756 10755 10754 10753 10752 10751 10750 10748 10747 10745 10744 10743 10741 10739 10737 10735 10733 10731 10728 10726 10723 10720 10718 10715 10713 10710 10707 10702 10698 10697 10694 10690 10685 10681 10677 10674 10671 10667 10662 10658 10655 10652 10649 10645 10643 10638 10634 10635 10633 10632 10627 10606 10597 10603 10600 10595 10595 10588 10581 10577 10570 10563 10556 10551 10545 10538 10531 10524
10761 10761 10761 10762 10762 10762 10762 10762 10762 10761 10761 10761 10760 10760 10759 10758 10758 10757 10756 10755 10754 10753 10752 10751 10750 10749 10748 10746 10745 10743 10741 10740 10738 10736 10734 10731 10729 10727 10724 10722 10719 10716 10714 10711 10709 10706 10704 10699 10693 10691 10689 10686 10681 10677 10672 10667 10664 10661 10655 10652 10648 10645 10643 10639 10637 10634 10629 10630 10627 10627 10625 10605 10591 10598 10595 10589 10589 10582 10573 10567 10560 10553 10547 10542 10538 10530 10523 10517
10760 10760 10760 10760 10761 10761 10761 10760 10760 10760 10760 10759 10759 10758 10758 10757 10756 10755 10755 10753 10752 10751 10750 10749 10748 10747 10745 10743 10742 10740 10738 10736 10734 10732 10730 10728 10725 10722 10720 10717 10714 10712 10709 10707 10704 10701 10699 10696 10689 10684 10682 10680 10675 10671 10668 10662 10658 10655 10649 10644 10640 10637 10636 10633 10630 10628 10623 10623 10620 10621 10623 10602 10584 10589 10587 10582 10584 10576 10565 10558 10550 10544 10538 10534 10531 10524 10516 10509
10758 10758 10759 10759 10759 10759 10759 10759 10759 10758 10758 10758 10757 10757 10756 10755 10755 10754 10753 10751 10750 10749 10748 10746 10745 10744 10742 10741 10739 10737 10735 10733 10730 10728 10726 10724 10721 10718 10716 10713 10710 10707 10704 10701 10699 10695 10693 10692 10686 10679 10675 10673 10669 10664 10662 10657 10652 10649 10644 10638 10633 10629 10628 10625 10623 10620 10615 10615 10609 10610 10619 10601 10577 10578 10576 10570 10573 10566 10556 10550 10541 10535 10530 10525 10522 10518 10510 10502
10757 10757 10757 10757 10758 10758 10758 10757 10757 10757 10757 10756 10755 10755 10754 10754 10753 10752 10750 10749 10748 10747 10745 10744 10742 10741 10739 10737 10735 10733 10731 10729 10726 10724 10721 10719 10717 10713 10710 10708 10705 10702 10699 10695 10693 10690 10687 10685 10682 10675 10669 10666 10662 10657 10655 10651 10647 10644 10639 10633 10627 10623 10621 10618 10617 10613 10607 10606 10598 10597 10609 10599 10573 10567 10563 10557 10559 10553 10543 10539 10532 10527 10521 10516 10513 10509 10503 10495
10755 10756 10756 10756 10756 10756 10756 10756 10756 10756 10755 10754 10754 10753 10752 10751 10750 10749 10748 10746 10745 10744 10742 10741 10739 10737 10735 10733 10731 10729 10727 10724 10721 10719 10716 10713 10711 10708 10705 10702 10699 10696 10693 10690 10686 10683 10681 10679 10676 10671 10664 10660 10654 10649 10646 10644 10640 10637 10633 10627 10621 10616 10611 10607 10608 10606 10601 10599 10590 10586 10598 10594 10573 10561 10555 10549 10549 10543 10532 10526 10522 10518 10513 10508 10504 10500 10494 10486
10754 10754 10755 10755 10755 10755 10755 10754 10754 10754 10753 10752 10752 10751 10750 10749 10748 10746 10745 10743 10742 10740 10738 10737 10734 10732 10730 10728 10726 10724 10722 10719 10715 10713 10711 10707 10705 10702 10699 10696 10693 10689 10687 10684 10680 10677 10674 10672 10670 10666 10661 10655 10649 10643 10639 10636 10633 10630 10625 10620 10615 10610 10602 10596 10595 10596 10594 10591 10584 10580 10586 10587 10574 10559 10551 10547 10543 10535 10523 10514 10511 10510 10505 10500 10496 10492 10485 10477
10753 10753 10753 10753 10753 10753 10753 10752 10752 10751 10751 10750 10749 10748 10747 10746 10744 10742 10741 10739 10738 10736 10734 10732 10730 10728 10726 10723 10721 10719 10717 10715 10710 10707 10705 10701 10698 10696 10693 10689 10686 10683 10680 10677 10674 10670 10667 10665 10663 10661 10658 10652 10645 10638 10633 10629 10625 10621 10616 10610 10606 10601 10594 10588 10585 10585 10585 10582 10578 10574 10574 10577 10571 10556 10546 10543 10537 10528 10517 10506 10501 10501 10497 10491 10486 10483 10477 10468
10752 10752 10751 10751 10751 10751 10751 10750 10749 10748 10748 10747 10746 10745 10743 10742 10740 10738 10737 10735 10733 10731 10729 10727 10725 10723 10720 10718 10716 10713 10711 10709 10706 10701 10699 10696 10692 10689 10686 10683 10680 10676 10673 10670 10667 10664 10661 10657 10654 10653 10653 10650 10645 10638 10631 10626 10621 10616 10609 10603 10599 10593 10586 10582 10579 10577 10576 10574 10574 10569 10563 10567 10566 10550 10541 10537 10528 10520 10511 10499 10492 10489 10487 10482 10477 10474 10469 10461
10749 10749 10749 10749 10749 10749 10748 10747 10746 10745 10744 10743 10742 10741 10739 10738 10736 10734 10732 10730 10728 10726 10724 10722 10720 10717 10715 10712 10710 10707 10705 10703 10700 10696 10693 10690 10686 10683 10680 10677 10673 10669 10666 10663 10660 10657 10655 10651 10645 10642 10640 10640 10639 10634 10629 10626 10621 10614 10607 10599 10593 10587 10581 10576 10573 10571 10567 10566 10570 10564 10554 10559 10560 10545 10538 10531 10518 10512 10507 10496 10487 10482 10477 10474 10469 10467 10463 10454
10747 10746 10746 10746 10746 10745 10744 10743 10742 10741 10740 10739 10738 10736 10734 10733 10731 10729 10727 10725 10723 10721 10719 10717 10714 10712 10710 10707 10704 10701 10699 10696 10693 10690 10688 10684 10681 10677 10674 10671 10666 10663 10659 10656 10653 10650 10648 10645 10639 10634 10630 10626 10624 10620 10615 10614 10612 10606 10598 10590 10583 10578 10574 10569 10565 10563 10556 10555 10561 10557 10546 10549 10549 10538 10534 10526 10513 10508 10503 10492 10485 10479 10473 10468 10463 10461 10456 10447
10744 10743 10743 10743 10742 10742 10740 10739 10739 10737 10736 10735 10733 10732 10730 10728 10726 10724 10722 10720 10718 10716 10714 10711 10708 10706 10704 10701 10699 10696 10693 10690 10687 10684 10682 10678 10675 10671 10668 10665 10660 10657 10653 10649 10646 10642 10640 10638 10632 10628 10626 10619 10614 10610 10605 10601 10599 10594 10586 10578 10571 10567 10564 10562 10559 10554 10547 10544 10548 10547 10539 10538 10535 10528 10523 10515 10505 10501 10495 10484 10477 10473 10468 10462 10458 10456 10449 10440
10741 10740 10740 10740 10739 10738 10737 10736 10735 10734 10732 10731 10729 10727 10725 10723 10721 10719 10717 10715 10713 10710 10708 10706 10703 10701 10699 10696 10694 10692 10689 10686 10682 10678 10675 10672 10669 10665 10662 10658 10653 10649 10645 10640 10637 10632 10630 10629 10624 10621 10621 10614 10605 10601 10598 10594 10590 10585 10575 10565 10561 10560 10557 10554 10552 10546 10540 10537 10537 10534 10531 10528 10522 10515 10511 10503 10493 10488 10483 10474 10467 10462 10457 10452 10448 10446 10440 10432
10738 10737 10737 10736 10735 10734 10733 10732 10730 10729 10727 10726 10724 10722 10720 10718 10716 10713 10711 10710 10708 10705 10703 10701 10698 10695 10693 10691 10689 10686 10683 10681 10679 10675 10670 10666 10662 10658 10655 10651 10645 10641 10636 10631 10627 10622 10619 10618 10614 10612 10614 10609 10597 10591 10590 10587 10583 10578 10566 10553 10550 10553 10550 10546 10544 10538 10533 10532 10529 10524 10522 10520 10512 10502 10497 10491 10483 10477 10472 10465 10457 10449 10442 10438 10437 10435 10429 10421
10735 10734 10734 10733 10731 10730 10729 10727 10726 10724 10722 10721 10719 10717 10715 10713 10711 10709 10707 10705 10703 10700 10697 10695 10693 10690 10687 10685 10682 10679 10676 10673 10672 10669 10666 10662 10657 10652 10648 10645 10639 10634 10629 10623 10619 10613 10609 10608 10604 10601 10604 10604 10592 10583 10582 10580 10577 10571 10558 10545 10543 10546 10543 10538 10534 10530 10526 10525 10521 10514 10511 10511 10504 10493 10486 10480 10473 10467 10462 10456 10448 10437 10429 10425 10424 10421 10416 10410
10732 10731 10730 10729 10727 10726 10725 10723 10721 10720 10717 10716 10714 10712 10710 10709 10706 10704 10703 10699 10697 10695 10692 10690 10687 10684 10681 10679 10675 10672 10668 10666 10663 10660 10657 10654 10651 10646 10642 10637 10632 10628 10622 10616 10612 10606 10601 10598 10595 10591 10592 10594 10586 10578 10576 10575 10571 10562 10545 10533 10536 10538 10533 10528 10525 10521 10518 10516 10512 10506 10503 10501 10494 10484 10478 10473 10466 10460 10455 10447 10436 10425 10419 10416 10413 10408 10403 10398
10728 10726 10726 10724 10722 10721 10720 10718 10716 10716 10713 10711 10709 10707 10705 10703 10700 10699 10697 10694 10691 10689 10686 10684 10681 10678 10675 10672 10668 10664 10661 10658 10655 10651 10647 10643 10640 10637 10632 10627 10623 10618 10613 10608 10603 10599 10593 10589 10585 10580 10580 10582 10576 10568 10568 10568 10566 10556 10534 10521 10524 10526 10521 10518 10517 10513 10508 10505 10501 10497 10493 10489 10482 10474 10468 10462 10457 10454 10449 10440 10425 10414 10411 10410 10405 10397 10390 10386